Weather History for KMKC - June, 2013

Change the Weather History Date:

Saturday, June 15, 2013

  Actual Average (KMCI) Record (KMCI)
Temperature  
Mean Temperature 78 °F 74 °F  
Max Temperature 91 °F 84 °F 102 °F (1953)
Min Temperature 66 °F 64 °F 52 °F (1917)
Degree Days  
Heating Degree Days 0 0  
Month to date heating degree days 7  
Since 1 June heating degree days 7  
Since 1 July heating degree days 5131  
Cooling Degree Days 14 9  
Month to date cooling degree days 106  
Year to date cooling degree days 222  
Since 1 June cooling degree days 106  
Growing Degree Days 28 (Base 50)    
Moisture  
Dew Point 67 °F    
Average Humidity 74    
Maximum Humidity 96    
Minimum Humidity 46    
Precipitation  
Precipitation 1.70 in 0.17 in 2.16 in (2009)
Month to date precipitation 2.66  
Year to date precipitation 16.49  
Snow  
Snow 0.00 in 0.00 in 0.00 in ()
Month to date snowfall 0.0  
Since 1 June snowfall 0.0  
Since 1 July snowfall 18.8  
Snow Depth -    
Sea Level Pressure  
Sea Level Pressure 29.94 in    
Wind  
Wind Speed 10 mph (SSW)    
Max Wind Speed 43 mph    
Max Gust Speed 61 mph    
Visibility 8 miles    
Events Fog , Rain , Thunderstorm    
T = Trace of Precipitation, MM = Missing Value Source: NWS Daily Summary

Daily Weather History Graph

Daily Weather History Graph

Search for Another Location

Airport or City:

Trip Planner

Search our weather history database for the weather conditions in past years. The results will help you decide how hot, cold, wet, or windy it might be!

Date:

Astronomy

Jun. 15, 2013 Rise Set
Actual Time 5:51 AM CDT 8:46 PM CDT
Civil Twilight 5:19 AM CDT 9:18 PM CDT
Nautical Twilight 4:39 AM CDT 9:59 PM CDT
Astronomical Twilight 3:52 AM CDT 10:45 PM CDT
Moon 12:24 PM CDT (6/15) 12:24 AM CDT (6/15)
Length of Visible Light 15h 58m
Length of Day
14h 54m
Waxing Crescent, 40% of the Moon is Illuminated
Jun 15
Waxing Crescent
Jun 16
First Quarter
Jun 23
Full
Jun 29
Last Quarter
Jul 8
New

Hourly Weather History & Observations

Time (CDT) Temp. Heat Index Dew Point Humidity Pressure Visibility Wind Dir Wind Speed Gust Speed Precip Events Conditions
12:54 AM 80.1 °F 82.3 °F 66.9 °F 64% 29.90 in 10.0 mi South 15.0 mph 26.5 mph N/A   Clear
1:54 AM 79.0 °F - 68.0 °F 69% 29.90 in 10.0 mi South 4.6 mph - N/A   Clear
2:54 AM 79.0 °F - 69.1 °F 72% 29.91 in 10.0 mi South 6.9 mph - N/A   Clear
3:54 AM 79.0 °F - 69.1 °F 72% 29.93 in 10.0 mi East 8.1 mph - N/A   Clear
4:54 AM 77.0 °F - 66.0 °F 69% 29.93 in 10.0 mi SE 9.2 mph 20.7 mph N/A   Mostly Cloudy
5:13 AM 77.0 °F - 66.2 °F 69% 29.94 in 10.0 mi SSE 11.5 mph - N/A   Scattered Clouds
5:54 AM 75.9 °F - 66.0 °F 71% 29.93 in 10.0 mi SSW 6.9 mph - N/A   Clear
6:54 AM 75.9 °F - 66.9 °F 74% 29.92 in 10.0 mi South 12.7 mph 19.6 mph N/A   Clear
7:54 AM 78.1 °F - 69.1 °F 74% 29.93 in 10.0 mi South 9.2 mph - N/A   Clear
8:54 AM 79.0 °F - 70.0 °F 74% 29.93 in 10.0 mi SSW 12.7 mph 18.4 mph N/A   Clear
9:54 AM 84.0 °F 89.6 °F 72.0 °F 67% 29.92 in 10.0 mi South 13.8 mph 19.6 mph N/A   Clear
10:54 AM 84.9 °F 90.7 °F 72.0 °F 65% 29.92 in 10.0 mi SSW 11.5 mph - N/A   Clear
11:54 AM 86.0 °F 91.5 °F 71.1 °F 61% 29.92 in 10.0 mi SW 4.6 mph - N/A   Clear
12:54 PM 88.0 °F 91.4 °F 68.0 °F 51% 29.92 in 10.0 mi WSW 9.2 mph - N/A   Clear
1:54 PM 90.0 °F 92.8 °F 66.9 °F 46% 29.89 in 10.0 mi Variable 5.8 mph - N/A   Partly Cloudy
2:54 PM 91.0 °F 95.2 °F 68.0 °F 47% 29.87 in 10.0 mi West 5.8 mph - N/A   Partly Cloudy
3:36 PM 87.8 °F 90.4 °F 66.2 °F 49% 29.89 in 10.0 mi NW 6.9 mph - N/A Thunderstorm Scattered Clouds
3:47 PM 87.8 °F 90.4 °F 66.2 °F 49% 29.91 in 10.0 mi Calm Calm - N/A Thunderstorm Partly Cloudy
3:54 PM 87.1 °F 89.9 °F 66.9 °F 51% 29.88 in 10.0 mi Calm Calm - N/A Thunderstorm Scattered Clouds
4:03 PM 75.2 °F - 64.4 °F 69% 30.04 in 2.5 mi South 42.6 mph 61.0 mph 0.08 in Thunderstorm Unknown
4:06 PM 69.8 °F - 64.4 °F 83% 30.03 in 0.8 mi South 35.7 mph 61.0 mph 0.32 in Thunderstorm Unknown
4:09 PM 66.2 °F - 64.4 °F 94% 30.04 in 0.5 mi South 23.0 mph 61.0 mph 0.55 in Fog , Thunderstorm Unknown
4:18 PM 66.2 °F - 64.4 °F 94% 30.04 in 0.5 mi SSW 13.8 mph 27.6 mph 1.14 in Fog , Rain , Thunderstorm Heavy Thunderstorms and Rain
4:25 PM 68.0 °F - 66.2 °F 94% 30.02 in 1.0 mi SSW 11.5 mph 23.0 mph 1.33 in Rain , Thunderstorm Heavy Thunderstorms and Rain
4:33 PM 68.0 °F - 66.2 °F 94% 29.98 in 1.8 mi SSW 8.1 mph 17.3 mph 1.43 in Rain , Thunderstorm Heavy Thunderstorms and Rain
4:37 PM 69.8 °F - 66.2 °F 88% 29.99 in 3.0 mi SW 6.9 mph - 1.44 in Rain , Thunderstorm Heavy Thunderstorms and Rain
4:49 PM 69.8 °F - 66.2 °F 88% 30.00 in 8.0 mi SW 6.9 mph - 1.45 in Rain , Thunderstorm Light Thunderstorms and Rain
4:54 PM 69.1 °F - 68.0 °F 96% 29.98 in 9.0 mi SSW 5.8 mph - 1.45 in Rain , Thunderstorm Light Thunderstorms and Rain
5:54 PM 70.0 °F - 66.0 °F 87% 29.99 in 3.0 mi SSW 8.1 mph 20.7 mph 0.15 in Rain Rain
6:54 PM 71.1 °F - 64.9 °F 81% 29.92 in 10.0 mi South 13.8 mph 20.7 mph 0.10 in   Scattered Clouds
7:54 PM 71.1 °F - 64.9 °F 81% 29.88 in 10.0 mi SSE 6.9 mph - N/A   Overcast
8:54 PM 70.0 °F - 64.9 °F 84% 29.90 in 10.0 mi South 6.9 mph - 0.00 in   Overcast
9:54 PM 70.0 °F - 64.0 °F 81% 29.92 in 10.0 mi WSW 3.5 mph - N/A   Overcast
10:54 PM 70.0 °F - 64.9 °F 84% 29.95 in 10.0 mi NE 6.9 mph - N/A   Mostly Cloudy
11:54 PM 69.1 °F - 64.9 °F 87% 29.94 in 10.0 mi ESE 4.6 mph - N/A   Clear